DB7GV-8 Weather Reports


time (UTC)temp
F
wind
direction
speed
knots
gust
knots
rain 1hr
in
rain 24hr
in
rain mn
in
humidity
%
barometer
mb
20260506193509 51 0 0.0 0.0 0.00 0.00 0.00 84 1011.8
20260506192002 51 0 0.0 0.0 0.00 0.00 0.00 84 1011.8
20260506190458 51 0 0.0 0.0 0.00 0.00 0.00 83 1011.7
20260506184952 51 0 0.0 0.0 0.00 0.00 0.00 82 1011.5
20260506183447 51 0 0.0 0.0 0.00 0.00 0.00 81 1011.2
20260506181942 52 0 0.0 0.0 0.00 0.00 0.00 80 1011.1
20260506180435 52 0 0.0 0.0 0.00 0.00 0.00 79 1011.0
20260506174930 52 0 0.0 0.0 0.00 0.00 0.00 79 1010.9
20260506173425 53 0 0.0 0.0 0.00 0.00 0.00 78 1010.8
20260506171919 53 0 0.0 0.0 0.00 0.00 0.00 76 1010.7
20260506170414 53 0 0.0 0.0 0.00 0.00 0.00 74 1010.5
20260506164909 53 0 0.0 0.0 0.00 0.00 0.00 73 1010.3
20260506163403 53 0 0.0 0.0 0.00 0.00 0.00 72 1010.1
20260506161858 53 0 0.0 0.0 0.00 0.00 0.00 71 1010.3
20260506160353 54 0 0.0 0.0 0.00 0.00 0.00 71 1010.4
20260506153342 55 0 0.0 0.0 0.00 0.00 0.00 72 1010.4
20260506151837 55 0 0.0 0.0 0.00 0.00 0.00 74 1010.2
20260506150331 55 0 0.0 0.0 0.00 0.00 0.00 77 1010.1
20260506144825 55 0 0.0 0.0 0.00 0.00 0.00 77 1010.0
20260506143320 55 0 0.0 0.0 0.00 0.00 0.00 74 1010.0
20260506141815 55 0 0.0 0.0 0.00 0.00 0.00 74 1009.9
20260506140309 55 0 0.0 0.0 0.00 0.00 0.00 73 1009.9
20260506133258 57 0 0.0 0.0 0.00 0.00 0.00 72 1009.4
20260506131753 58 0 0.0 0.0 0.00 0.00 0.00 70 1009.2
20260506130248 60 0 0.0 0.0 0.00 0.00 0.00 65 1008.9
20260506124741 61 0 0.0 0.0 0.00 0.00 0.00 63 1008.5
20260506123237 61 0 0.0 0.0 0.00 0.00 0.00 63 1008.4
20260506121731 63 0 0.0 0.0 0.00 0.00 0.00 60 1008.1
20260506114720 65 0 0.0 0.0 0.00 0.00 0.00 60 1008.0
20260506113215 63 0 0.0 0.0 0.00 0.00 0.00 66 1008.0
20260506111710 63 0 0.0 0.0 0.00 0.00 0.00 66 1008.1
20260506110204 61 0 0.0 0.0 0.00 0.00 0.00 68 1008.2
20260506104658 63 0 0.0 0.0 0.00 0.00 0.00 68 1008.1
20260506103153 60 0 0.0 0.0 0.00 0.00 0.00 70 1008.2
20260506101648 60 0 0.0 0.0 0.00 0.00 0.00 70 1008.4
20260506094637 59 0 0.0 0.0 0.00 0.00 0.00 69 1008.4
20260506093131 59 0 0.0 0.0 0.00 0.00 0.00 70 1008.4
20260506090121 59 0 0.0 0.0 0.00 0.00 0.00 67 1008.5
20260506084615 61 0 0.0 0.0 0.00 0.00 0.00 64 1008.3
20260506083110 61 0 0.0 0.0 0.00 0.00 0.00 61 1008.2
20260506081605 64 0 0.0 0.0 0.00 0.00 0.00 56 1008.1
20260506073049 73 0 0.0 0.0 0.00 0.00 0.00 48 1008.4
20260506061521 51 0 0.0 0.0 0.00 0.00 0.00 89 1008.5
20260506044448 47 0 0.0 0.0 0.00 0.00 0.00 91 1008.8
20260506042943 47 0 0.0 0.0 0.00 0.00 0.00 91 1008.9
20260506041438 47 0 0.0 0.0 0.00 0.00 0.00 91 1009.0
20260506035933 47 0 0.0 0.0 0.00 0.00 0.00 91 1009.2
20260506034427 47 0 0.0 0.0 0.00 0.00 0.00 91 1009.3
20260506032922 47 0 0.0 0.0 0.00 0.00 0.00 91 1009.4
20260506031417 47 0 0.0 0.0 0.00 0.00 0.00 90 1009.3
20260506025916 47 0 0.0 0.0 0.00 0.00 0.00 90 1009.4
20260506024406 47 0 0.0 0.0 0.00 0.00 0.00 90 1009.7
20260506022900 48 0 0.0 0.0 0.00 0.00 0.00 90 1009.9
20260506021354 48 0 0.0 0.0 0.00 0.00 0.00 90 1009.9
20260506015849 48 0 0.0 0.0 0.00 0.00 0.00 90 1010.0
20260506014344 48 0 0.0 0.0 0.00 0.00 0.00 90 1010.1
20260506012838 48 0 0.0 0.0 0.00 0.00 0.00 90 1010.1
20260506011333 48 0 0.0 0.0 0.00 0.00 0.00 90 1010.2
20260506005828 48 0 0.0 0.0 0.00 0.00 0.00 90 1010.3
20260506004322 48 0 0.0 0.0 0.00 0.00 0.00 90 1010.6
20260506002817 48 0 0.0 0.0 0.00 0.00 0.00 90 1010.6
20260506001312 48 0 0.0 0.0 0.00 0.00 0.00 90 1010.6
20260505235805 48 0 0.0 0.0 0.00 0.00 0.00 90 1010.4
20260505234300 49 0 0.0 0.0 0.00 0.00 0.00 90 1010.6
20260505232755 50 0 0.0 0.0 0.00 0.00 0.00 90 1010.8
20260505231250 49 0 0.0 0.0 0.00 0.00 0.00 89 1010.9
20260505225744 49 0 0.0 0.0 0.00 0.00 0.00 89 1011.0
20260505224239 49 0 0.0 0.0 0.00 0.00 0.00 89 1011.0
20260505222734 49 0 0.0 0.0 0.00 0.00 0.00 90 1011.0
20260505221228 49 0 0.0 0.0 0.00 0.00 0.00 89 1011.0
20260505215722 50 0 0.0 0.0 0.00 0.00 0.00 89 1011.2
20260505214217 50 0 0.0 0.0 0.00 0.00 0.00 89 1011.3
20260505211207 51 0 0.0 0.0 0.00 0.00 0.00 89 1011.2
20260505205700 52 0 0.0 0.0 0.00 0.00 0.00 89 1011.4
20260505204155 52 0 0.0 0.0 0.00 0.00 0.00 89 1011.3
20260505202650 53 0 0.0 0.0 0.00 0.00 0.00 89 1011.2
20260505201145 54 0 0.0 0.0 0.00 0.00 0.00 89 1011.1
20260505195640 54 0 0.0 0.0 0.00 0.00 0.00 89 1010.9
20260505194134 55 0 0.0 0.0 0.00 0.00 0.00 88 1010.8